Presure
190 197 202 207 198 175 218 223 251 220 228 214 200 191 202 213 217 224 224 223 232 239 212 215 211 219 174 183 169 180 167 169
188 187 201 205 182 182 191 218 248 239 232 222 205 190 201 212 216 225 223 222 231 251 233 230 173 184 210 170 174 175 161 183
193 192 202 195 204 206 185 178 245 237 216 212 199 191 203 212 211 217 221 214 254 228 220 208 179 195 181 196 189 171 170 158
195 196 205 212 197 209 198 217 245 236 216 207 198 197 210 200 215 208 222 210 237 242 212 194 198 187 174 175 172 181 165 173
195 202 212 212 213 225 216 225 252 240 212 200 207 202 209 196 219 209 222 203 222 214 217 197 194 184 170 177 171 169 167 165
205 214 207 205 228 221 244 215 256 237 215 208 208 208 204 200 211 246 223 210 216 183 203 200 174 184 181 183 171 185 170 152
219 176 221 233 232 241 235 217 272 233 216 212 207 206 208 202 214 336 225 211 204 202 201 186 193 188 173 181 178 173 175 160
230 226 213 226 234 237 228 257 265 222 222 210 202 202 204 218 217 330 208 214 200 200 189 192 176 177 178 172 175 174 169 182
225 215 214 238 240 235 223 251 246 224 205 206 197 193 207 214 215 285 208 222 204 191 184 183 193 174 188 172 181 173 182 179
214 232 248 234 242 229 249 248 234 216 215 209 193 198 212 194 217 250 211 214 212 194 187 184 181 190 177 182 187 171 172 178
226 223 225 225 236 256 256 254 233 214 216 200 195 198 199 201 206 313 222 197 205 211 199 190 184 181 184 180 181 180 178 178
229 235 221 245 249 254 244 241 216 213 208 201 199 192 197 198 212 204 225 195 193 201 208 206 191 188 186 183 186 181 179 183
223 240 241 256 251 263 226 231 216 208 218 210 200 195 191 183 201 201 276 199 196 185 190 205 207 199 194 192 191 195 191 187
235 245 244 246 248 248 225 224 208 206 204 204 200 195 198 199 185 200 211 238 189 199 180 190 189 186 196 198 199 196 194 186
241 248 222 239 247 260 239 222 219 203 202 196 199 197 195 186 187 181 203 219 207 190 182 183 187 176 170 185 178 182 185 186
245 234 234 237 270 212 219 218 219 207 204 200 201 188 194 200 194 200 186 200 212 207 187 186 181 179 189 188 189 189 181 182
223 242 234 273 244 228 227 221 229 205 216 222 194 197 193 193 191 199 205 196 188 202 213 190 191 186 178 178 179 179 180 181
239 233 241 270 233 227 230 222 234 222 211 209 215 209 190 190 181 190 183 198 198 196 188 198 207 204 198 185 180 182 182 192
237 238 254 258 234 227 226 220 214 199 215 203 209 209 202 201 198 194 185 187 192 195 199 193 188 179 190 200 204 204 202 202
Wind_Speed
46 54 53 50 49 47 42 40 34 38 38 35 31 36 28 23 26 27 28 21 26 39 40 50 48 55 35 32 35 29 36 30
53 53 55 52 65 55 52 38 35 34 33 34 31 37 27 23 26 30 27 23 26 32 40 49 37 41 48 34 28 28 45 25
56 60 61 57 51 50 45 40 36 33 32 33 35 35 26 24 27 27 29 23 29 38 41 46 42 39 35 33 31 37 36 45
57 61 66 57 55 49 55 40 37 35 32 35 36 31 22 30 27 26 31 24 30 39 41 37 40 38 35 34 36 29 40 34
61 67 70 59 50 55 48 38 35 38 35 37 32 28 22 32 26 26 33 28 30 34 34 38 42 38 34 33 36 35 38 37
69 71 66 57 58 55 47 38 34 39 37 37 32 27 25 30 26 35 36 33 33 29 38 37 32 38 39 41 35 40 37 44
72 54 66 60 55 47 42 41 37 40 39 37 33 27 24 28 24 26 37 39 34 39 39 39 43 42 35 42 45 45 43 43
60 62 61 57 53 45 43 33 37 39 37 35 34 29 26 22 22 25 30 43 40 43 40 46 34 37 43 44 45 49 44 52
54 59 58 49 51 42 41 33 37 38 36 33 32 34 24 21 21 23 36 44 48 41 39 44 48 43 46 45 51 50 56 50
56 50 52 54 50 42 41 33 39 34 31 32 36 29 23 30 21 24 46 43 52 49 46 49 48 51 51 55 55 48 48 54
48 52 52 53 49 47 39 37 41 36 34 36 33 29 28 22 22 19 49 43 42 55 57 54 56 54 58 52 54 55 56 59
45 47 56 50 48 44 38 41 40 37 35 38 33 35 29 26 17 20 47 43 45 47 49 56 62 61 63 60 64 62 60 65
47 40 45 43 46 39 39 41 41 42 35 35 36 36 37 39 21 24 21 48 50 46 46 50 55 63 65 66 67 70 65 60
39 38 45 46 41 38 39 44 47 43 39 38 40 40 35 31 37 26 27 34 47 54 47 55 54 51 57 59 59 59 60 58
40 40 49 47 39 45 46 51 50 47 47 46 44 42 41 44 40 39 32 29 55 56 51 53 57 53 49 57 54 58 61 63
43 49 51 48 42 46 47 51 51 50 51 49 47 46 44 40 41 38 41 37 35 61 58 60 57 56 59 63 64 64 63 63
58 51 53 39 45 49 53 52 54 53 52 54 50 50 48 45 43 39 38 43 47 41 43 65 68 70 63 65 67 68 68 70
56 57 54 55 56 55 55 54 54 50 52 50 49 53 51 50 50 52 52 47 47 50 55 51 49 64 78 73 70 74 70 73
60 54 47 61 60 59 57 54 52 56 51 52 52 55 57 57 57 55 56 53 52 53 51 55 56 55 58 59 60 62 65 64
Wind_Direction
274 279 285 288 285 270 294 282 293 260 253 256 248 258 268 275 275 247 250 236 240 217 215 216 221 216 228 218 226 236 240 243
272 269 285 287 267 270 276 282 289 258 253 250 252 258 262 267 268 243 250 234 227 221 211 208 237 216 226 219 222 229 240 249
277 278 281 266 271 266 266 271 278 250 248 250 249 253 257 271 259 243 255 236 229 205 203 207 227 218 212 226 230 227 247 246
273 276 283 282 271 273 268 270 271 245 240 247 249 242 260 258 255 245 246 233 213 206 209 208 212 219 214 223 222 236 240 246
273 278 278 278 275 283 266 267 262 242 240 245 247 245 250 252 251 238 234 233 212 202 212 215 215 224 225 231 234 239 238 245
275 275 272 268 278 271 274 263 251 239 236 241 244 248 242 245 249 230 226 226 216 234 213 211 242 230 237 246 245 252 242 247
270 265 271 273 270 266 264 262 247 234 234 238 242 243 242 240 247 250 224 221 222 215 218 232 221 226 239 240 248 252 257 254
264 263 261 267 262 260 256 255 237 231 230 237 242 244 242 243 247 257 229 217 222 219 228 231 243 241 237 245 247 253 254 256
253 254 258 254 251 251 249 243 221 227 232 237 240 243 252 242 245 264 236 220 218 226 234 240 233 242 236 245 244 255 255 259
246 255 250 253 249 246 245 229 214 221 221 229 235 242 259 245 253 254 228 230 217 224 228 232 244 238 244 242 243 260 267 269
241 246 244 249 248 244 238 218 210 219 215 228 228 234 242 244 247 250 211 240 231 220 224 229 238 245 246 250 251 257 261 267
239 238 244 241 241 238 222 209 219 219 216 226 226 226 231 237 243 231 206 233 242 240 231 227 236 242 247 252 252 255 260 261
237 240 238 235 237 231 217 209 214 221 211 222 226 223 226 241 229 226 231 224 228 245 248 244 231 234 238 242 246 247 253 261
243 241 228 231 234 214 213 204 219 220 218 219 225 224 223 224 236 224 225 219 230 229 245 247 253 255 254 252 254 260 264 268
243 235 239 229 225 207 205 207 210 219 220 226 225 225 227 233 229 242 228 224 218 229 240 241 244 257 266 264 267 269 269 269
238 222 224 226 213 216 212 214 212 216 220 224 224 233 234 231 231 234 235 227 228 223 232 237 248 253 246 250 254 259 266 268
221 218 219 221 201 209 205 212 217 216 218 223 225 225 230 236 237 238 238 227 231 226 230 233 236 240 251 255 257 260 261 263
216 217 215 201 212 215 205 212 219 214 219 223 224 225 234 231 243 235 244 235 229 226 233 231 233 238 240 248 254 255 260 260
213 211 217 200 211 216 211 213 212 226 218 226 226 222 228 232 235 237 247 247 244 240 237 236 240 250 241 242 244 246 248 250